ノヴィチョノク-ゲルケ彗星

P/2011 R3 ( Novichonok-Gerke )

English version
Home page
Updated on April 29, 2013

---------------------------------------------------------------------

・ プロフィール

発見日 2011年9月7日
発見光度 18.9等
発見者 Artyom O. Novichonok and Vladimir V. Gerke (TAU station of the Ka-Dar Observatory, near Nizhniy Arkhyz, Russia)

・ 写真集

・ 軌道要素

Epoch 2012 Mar. 14.0 TT = JDT 2456000.5
T 2012 Apr. 3.10588 TT                                  MPC
q   3.5577550            (2000.0)            P               Q
n   0.09215290     Peri.  225.19211     +0.56919895     -0.81995253
a   4.8543385      Node   190.62114     +0.81621733     +0.57240973
e   0.2670979      Incl.   19.24411     +0.09900419     -0.00499591
P  10.7
From 354 observations 2011 Sept. 7-2013 Mar. 2, mean residual 0".5.

・ 光度変化

        m1 = 10.0 + 5 logΔ + 10.0 log r

---------------------------------------------------------------------

軌道要素はM.P.E.C. 2013-G31に掲載されたものです。
光度グラフはComet for Windowsで作成したものです。

---------------------------------------------------------------------

Copyright(C) Seiichi Yoshida (comet@aerith.net). All rights reserved.